Location: Unspecified
(0.0000°N, 0.0000°E)
Time: 12:34:29
(UTC+00:00)

RS-6 - Visible Passes

Search period start: 26 September 2022 00:00
Search period end: 06 October 2022 00:00
Orbit: 1635 x 1665 km, 83.0° (Epoch: 25 September)

Date Brightness Start Highest point End Pass type
(mag) Time Alt. Az. Time Alt. Az. Time Alt. Az.
26 Sep ? 04:21:49 10° SSE 04:30:57 51° E 04:39:58 10° NNE visible
27 Sep ? 04:14:19 10° SSE 04:23:25 49° E 04:32:23 10° NNE visible
28 Sep ? 04:06:49 10° SSE 04:15:52 48° E 04:24:48 10° NNE visible
29 Sep ? 03:59:19 10° SSE 04:08:19 47° E 04:17:12 10° NNE visible
30 Sep ? 03:51:50 10° SSE 04:00:47 46° E 04:09:37 10° NNE visible
01 Oct ? 03:44:19 10° SSE 03:53:14 45° E 04:02:01 10° NNE visible
02 Oct ? 03:36:50 10° SSE 03:45:41 44° E 03:54:25 10° NNE visible
03 Oct ? 03:29:20 10° SSE 03:38:08 43° E 03:46:50 10° NNE visible
04 Oct ? 03:21:51 10° SSE 03:30:35 41° E 03:39:13 10° NNE visible
04 Oct ? 05:22:51 10° SW 05:30:22 27° W 05:37:53 10° NW visible
05 Oct ? 03:14:21 10° SSE 03:23:03 40° E 03:31:37 10° NNE visible
05 Oct ? 05:15:13 10° SW 05:22:49 28° W 05:30:25 10° NNW visible
